Regional Weather Roundup
Issued by NWS Newport/Morehead, NC

Current Version | Previous Version | Graphics & Text | Print | Product List | Glossary On
Versions: 1 2 3 4 5 6 7 8 9 10 11 12 13 14 15 16 17 18 19 20 21 22 23 24 25 26 27 28 29 30 31 32 33 34 35 36 37 38 39 40 41 42 43 44 45 46 47 48 49 50
000 ASUS42 KMHX 011013 RWRMHX WEATHER ROUNDUP FOR EASTERN NORTH CAROLINA NATIONAL WEATHER SERVICE NEWPORT/MOREHEAD CITY NC 600 AM EDT SUN MAY 01 2016 NOTE: "FAIR" INDICATES FEW OR NO CLOUDS BELOW 12,000 FEET WITH NO SIGNIFICANT WEATHER AND/OR OBSTRUCTIONS TO VISIBILITY NCZ015>017-031-032-045>047-102-103-011100- NORTH COAST CITY SKY/WX TMP DP RH WIND PRES REMARKS EDENTON CLOUDY 57 57 100 CALM 30.14S ELIZABETH CITY CLOUDY 57 54 89 E6 30.13S KITTY HAWK CLOUDY 56 55 94 E3 30.12S MANTEO NOT AVBL $$ NCZ045>047-081-094-103-104-011100- CENTRAL COAST CITY SKY/WX TMP DP RH WIND PRES REMARKS FRISCO CLOUDY 60 58 92 NE7 30.12R SWANQUARTER NOT AVBL $$ NCZ095-097-098-100-101-011100- SOUTHERN COAST CITY SKY/WX TMP DP RH WIND PRES REMARKS BEAUFORT MOCLDY 60 59 96 NE5 30.12S CEDAR ISLAND NOT AVBL JACKSONVILLE CLOUDY 62 60 93 CALM 30.11S FOG PINEY ISLAND NOT AVBL WILMINGTON CLOUDY 65 63 93 E5 30.10S $$ NCZ011>013-027>030-043-044-078>080-089-090>093-098-011100- COASTAL PLAIN CITY SKY/WX TMP DP RH WIND PRES REMARKS AHOSKIE CLOUDY 55 52 92 CALM 30.14S CLINTON CLOUDY 60 60 100 CALM 30.11S FOG ELIZABETHTOWN CLOUDY 61 61 100 E3 30.09F FOG GOLDSBORO CLOUDY 61 61 100 SE7 30.09F GREENVILLE CLOUDY 55 54 94 E3 30.14S HAVELOCK CLOUDY 63 60 90 CALM 30.13S KENANSVILLE CLOUDY 59 58 97 CALM 30.13R FOG KINSTON CLOUDY 60 58 92 CALM 30.13S NEW BERN CLOUDY 60 57 89 NE5 30.13S RICHLANDS FOG 59 59 100 E5 30.12S VSB 3/4 ROCKY MOUNT CLOUDY 56 55 97 CALM 30.11F WASHINGTON CLOUDY 55 52 92 CALM 30.13S WHITEVILLE CLOUDY 63 61 92 E5 30.08F FOG $$ AMZ130-135-150-152-154-156-158-170-250-252-270-ANZ085-086-088-633-658-670-011100- MARINE OBSERVATIONS STATION/POSITION TIME TEMP WIND PRES WAVE SWELL AIR SEA DIR/SP/G HT/PER HT/PER (UTC) (F) (DEG/KT/KT) (MB) (FT/S) (FT/S) CHESAPEAKE LIGHT 1000 54 80/ 11/ 11 1021.4 64 E VA BEACH 0950 54 53 60/ 6/ 8 1020.2 6/10 7/10 DUCK 0900 56 67 100/ 6/ 7 1019.8 2 E DUCK 0911 59 N/A 4/11 2/11 OREGON INLET 0900 58 62 50/ 6/ 8 1019.7 13E OREGON INLT 1000 56 N/A 6/10 7/10 HATTERAS CG 0900 62 67 60/ 6/ 8 1019.2 DIAMOND BUOY 0950 72 73 170/ 12/ 16 1019.5 5/11 5/11 CAPE LOOKOUT 1000 65 50/ 7/ 8 1019.4 BEAUFORT LAB 0900 61 66 10/ 5/ 6 1018.9 30 SE NEW RVR IN 0925 69 N/A 4/ 9 2/12 27 SE WRIGHTSVLE 0908 73 72 170/ 16/ 19 1018.5 5 SE WRIGHTSVLE 0908 67 68 70/ 8/ 10 1019.8 225 S CAPE HAT 0950 71 100/ 14/ 16 1019.3 5/ 9 5/ 9 41 SE CHARLESTON 0950 74 72 130/ 16/ 17 1017.1 5/ 6 2/10 $$

USA.gov is the U.S. government's official web portal to all federal, state and local government web resources and services.